Showing default

ADRAS-J, 58992

Orbit data source: Space-Track

ADRAS-J, 58992 is a payload satellite owned by Astroscale (JP) in SSO that was launched on Sun, 18 Feb 2024 UTC via an ELECTRON launch vehicle from the Rocket Lab Launch Complex (RLLC). Payload-class satellites include a variety of spacecraft equipped with specific instruments for various scientific and technological missions. These include communications satellites like Starlink; space stations such as the ISS; scientific satellites like the Hubble; Earth observation satellites from companies like Planet Labs, Umbra, and HawkEye 360; GPS; miniature CubeSats for education and research; and military/defense satellites.

Loading next visibility...
Identifier
58992, 2024-034A
Orbit
SSO
Last TLE update
6 hours ago
Origin
Manufacturer
Astroscale
Mission
Operational Commercial Technology
Bus & Motor
ELSA, Unknown motor
Mass
150 kg wet, ~120 kg dry
Launch date (UTC)
2024-02-18 (1 year ago)
Launch vehicle
ELECTRON
Launch site
Rocket Lab Launch Complex (RLLC)
Object type
Payload
Rocket body
Debris
Shape & HBR
Box + 2 Pan, 3.7 m
Radar Cross Section
1.913 m², Large (>1 m²)

Expand to show TLE details & history

TLE from 6 hours ago
0 ADRAS-J
1 58992U 24034A   25192.15568172  .00001916  00000-0  15883-3 0  9995
2 58992  98.2500 191.7152 0034479 199.9041 160.0838 14.99739499 76064
Epoch: 2025-07-11T03:44Z
TLE epoch observation values (Epoch: 2025-07-11T03:44:10.9Z)
Latitude
-0.00002°
Longitude
-153.64188°
Altitude
593.269 km
Speed
7.551 km/s
True Right ascension
12h 46m 51s
True Declination
0° 00' 00"
Sunlit
Object was in daylight at epoch
Visualization orbit readout
Latitude
-22.69917°
Longitude
23.15189°
Altitude
552.398 km
Speed
7.598 km/s
Apparent Right ascension
03h 53m 43s
Apparent Declination
-57° 17' 39"
Sunlit
Object is in daylight
Visualization observer readout
Local Sidereal Time
21:44:12
Azimuth
139.451° SSE
Elevation
-33.857°
Doppler factor
1
Orbital elements
Apogee altitude
588.67 km
Perigee altitude
540.793 km
Semi-major axis
6,942.868 km
Eccentricity
0.00345
Inclination
98.25°
RAAN
191.7152°
Arg. of periapsis
199.9041°
True anomaly
Unknown
Mean anomaly
160.0838°
Eccentric anomaly
Unknown
Mean motion
3.75176 °/min
Orbital period
95.96 mins
BSTAR
0.00015883
Loading maneuver chart data...
Loading SW <> Apogee altitude chart data...
Loading historical data...
Loading historical data...
Loading historical data...
Loading historical data...
Loading historical data...
Loading historical data...
Loading historical data...
Other satellites on launch #34 in the year 2024 (2024-02-18 UTC)

ADRAS-J Visibility forecast

Observer location: undefined°, undefined°

Span
Click to sort rows by Start time (UTC) header in descending order
Start Az.
Max El. time (UTC)
Max El. Az.
Max El.
End time (UTC)
End Az.
6 mins2025-07-11 12:19:30.159Z40.414° NE2025-07-11 12:22:30.159Z106.139° ESE27.523°2025-07-11 12:25:30.159Z160.045° S
4 mins2025-07-11 13:55:30.159Z321.463° NNW2025-07-11 13:57:30.159Z283.848° WNW17.06°2025-07-11 13:59:30.159Z252.236° W
4 mins2025-07-11 23:07:30.159Z93.425° ESE2025-07-11 23:08:30.159Z73.506° E20.385°2025-07-11 23:11:30.159Z21.476° NNE
5 mins2025-07-12 00:41:30.159Z216.914° SW2025-07-12 00:43:30.159Z259.792° W25.867°2025-07-12 00:46:30.159Z317.858° NNW
|